• In Germany
  • List of Countries
  • For 7 days
  • Water Temperature
  • Satellite Maps
  • Weather Map
  • Weather Widgets
  • user-avatar
    Login

    Hourly Weather Townsville

    Today, 26 June, Monday

    Time Temperature Precipitation Wind Pressure Humidity
    00:00 +18°C° 0 mm 4 mps 756 mmHg 96%
    01:00 +18°C° 0 mm 4 mps 756 mmHg 96%
    02:00 +17°C° 0 mm 4 mps 756 mmHg 97%
    03:00 +17°C° 0 mm 4 mps 756 mmHg 98%
    04:00 +16°C° 0 mm 3 mps 756 mmHg 98%
    05:00 +16°C° 0 mm 3 mps 756 mmHg 98%
    06:00 +14°C° 0 mm 3 mps 756 mmHg 99%
    07:00 +14°C° 0 mm 3 mps 757 mmHg 99%
    08:00 +18°C° 0 mm 3 mps 757 mmHg 89%
    09:00 +21°C° 0 mm 4 mps 757 mmHg 79%
    10:00 +23°C° 0 mm 4 mps 757 mmHg 66%
    11:00 +25°C° 0 mm 4 mps 757 mmHg 61%
    12:00 +27°C° 0 mm 4 mps 757 mmHg 55%
    13:00 +28°C° 0 mm 4 mps 757 mmHg 49%
    14:00 +27°C° 0 mm 5 mps 756 mmHg 52%
    15:00 +27°C° 0 mm 5 mps 756 mmHg 54%
    16:00 +26°C° 0 mm 5 mps 756 mmHg 57%
    17:00 +23°C° 0 mm 5 mps 756 mmHg 68%
    18:00 +21°C° 0 mm 5 mps 756 mmHg 79%
    19:00 +19°C° 0 mm 5 mps 756 mmHg 90%
    20:00 +19°C° 0 mm 5 mps 757 mmHg 91%
    21:00 +18°C° 0 mm 4 mps 757 mmHg 93%
    22:00 +18°C° 0 mm 4 mps 757 mmHg 94%
    23:00 +18°C° 0 mm 4 mps 757 mmHg 95%

    Tomorrow, 27 June, Tuesday

    Time Temperature Precipitation Wind Pressure Humidity
    00:00 +18°C° 0 mm 4 mps 757 mmHg 95%
    01:00 +17°C° 0 mm 4 mps 757 mmHg 95%
    02:00 +17°C° 0 mm 4 mps 757 mmHg 96%
    03:00 +17°C° 0 mm 4 mps 757 mmHg 96%
    04:00 +17°C° 0 mm 4 mps 757 mmHg 96%
    05:00 +15°C° 0 mm 4 mps 757 mmHg 96%
    06:00 +15°C° 0 mm 4 mps 757 mmHg 97%
    07:00 +15°C° 0 mm 4 mps 757 mmHg 97%
    08:00 +18°C° 0 mm 4 mps 757 mmHg 90%
    09:00 +20°C° 0 mm 4 mps 758 mmHg 83%
    10:00 +22°C° 0 mm 5 mps 758 mmHg 77%
    11:00 +23°C° 0 mm 5 mps 757 mmHg 73%
    12:00 +25°C° 0 mm 5 mps 757 mmHg 69%
    13:00 +26°C° 0 mm 5 mps 757 mmHg 65%
    14:00 +26°C° 0 mm 5 mps 756 mmHg 66%
    15:00 +25°C° 0 mm 5 mps 756 mmHg 67%
    16:00 +25°C° 0 mm 5 mps 756 mmHg 68%
    17:00 +23°C° 0.1 mm 5 mps 756 mmHg 76%
    18:00 +21°C° 0.1 mm 5 mps 756 mmHg 85%
    19:00 +20°C° 0.1 mm 5 mps 757 mmHg 94%
    20:00 +20°C° 0.2 mm 5 mps 757 mmHg 95%
    21:00 +20°C° 0.2 mm 5 mps 757 mmHg 96%
    22:00 +20°C° 0.2 mm 5 mps 758 mmHg 96%
    23:00 +20°C° 0.3 mm 5 mps 758 mmHg 97%

    Day after tomorrow, 28 June, Wednesday

    Time Temperature Precipitation Wind Pressure Humidity
    00:00 +20°C° 0.3 mm 5 mps 757 mmHg 97%
    01:00 +20°C° 0.3 mm 5 mps 757 mmHg 97%
    02:00 +20°C° 0.2 mm 5 mps 757 mmHg 97%
    03:00 +20°C° 0.2 mm 5 mps 756 mmHg 97%
    04:00 +20°C° 0.2 mm 4 mps 756 mmHg 97%
    05:00 +20°C° 0.2 mm 4 mps 756 mmHg 97%
    06:00 +20°C° 0.2 mm 4 mps 757 mmHg 98%
    07:00 +20°C° 0.2 mm 4 mps 757 mmHg 98%
    08:00 +21°C° 0.2 mm 4 mps 757 mmHg 95%
    09:00 +22°C° 0.2 mm 4 mps 758 mmHg 92%
    10:00 +23°C° 0.2 mm 4 mps 758 mmHg 89%
    11:00 +23°C° 0.2 mm 4 mps 758 mmHg 86%
    12:00 +25°C° 0.2 mm 4 mps 757 mmHg 83%
    13:00 +25°C° 0.2 mm 5 mps 757 mmHg 80%
    14:00 +25°C° 0.2 mm 5 mps 756 mmHg 80%
    15:00 +25°C° 0.2 mm 5 mps 756 mmHg 79%
    16:00 +25°C° 0.2 mm 5 mps 756 mmHg 79%
    17:00 +23°C° 0.1 mm 4 mps 756 mmHg 85%
    18:00 +22°C° 0.1 mm 4 mps 757 mmHg 91%
    19:00 +21°C° 0.1 mm 4 mps 757 mmHg 97%
    20:00 +21°C° 0.1 mm 4 mps 757 mmHg 97%
    21:00 +21°C° 0.1 mm 4 mps 758 mmHg 97%
    22:00 +21°C° 0.1 mm 5 mps 758 mmHg 97%
    23:00 +21°C° 0.1 mm 4 mps 758 mmHg 97%

    29 June, Thursday

    Time Temperature Precipitation Wind Pressure Humidity
    00:00 +21°C° 0.1 mm 4 mps 757 mmHg 97%
    01:00 +21°C° 0.1 mm 4 mps 757 mmHg 97%
    02:00 +21°C° 0.2 mm 4 mps 757 mmHg 97%
    03:00 +21°C° 0.2 mm 4 mps 756 mmHg 97%
    04:00 +20°C° 0.2 mm 4 mps 756 mmHg 97%
    05:00 +20°C° 0.2 mm 4 mps 756 mmHg 97%
    06:00 +20°C° 0.2 mm 4 mps 757 mmHg 97%
    07:00 +20°C° 0.2 mm 4 mps 757 mmHg 97%
    08:00 +21°C° 0.1 mm 4 mps 757 mmHg 95%
    09:00 +21°C° 0.1 mm 4 mps 758 mmHg 94%
    10:00 +22°C° 0.1 mm 4 mps 758 mmHg 92%
    11:00 +22°C° 0.1 mm 4 mps 757 mmHg 90%
    12:00 +23°C° 0.1 mm 4 mps 757 mmHg 88%
    13:00 +23°C° 0.1 mm 4 mps 756 mmHg 86%
    14:00 +23°C° 0.2 mm 4 mps 756 mmHg 86%
    15:00 +23°C° 0.2 mm 4 mps 756 mmHg 86%
    16:00 +23°C° 0.2 mm 4 mps 755 mmHg 86%
    17:00 +22°C° 0.1 mm 4 mps 756 mmHg 89%
    18:00 +22°C° 0.1 mm 4 mps 756 mmHg 91%
    19:00 +21°C° 0.1 mm 4 mps 756 mmHg 94%
    20:00 +21°C° 0.1 mm 4 mps 757 mmHg 95%
    21:00 +20°C° 0.1 mm 4 mps 757 mmHg 96%
    22:00 +20°C° 0.1 mm 4 mps 757 mmHg 97%
    23:00 +20°C° 0.2 mm 3 mps 757 mmHg 97%

    30 June, Friday

    Time Temperature Precipitation Wind Pressure Humidity
    00:00 +20°C° 0.2 mm 3 mps 757 mmHg 98%
    01:00 +20°C° 0.2 mm 3 mps 756 mmHg 98%
    02:00 +19°C° 0.1 mm 3 mps 756 mmHg 98%
    03:00 +19°C° 0.1 mm 3 mps 756 mmHg 98%
    04:00 +19°C° 0.1 mm 3 mps 756 mmHg 98%
    05:00 +19°C° 0.1 mm 3 mps 756 mmHg 98%
    06:00 +19°C° 0.1 mm 4 mps 756 mmHg 97%
    07:00 +20°C° 0.1 mm 4 mps 757 mmHg 97%
    08:00 +20°C° 0.3 mm 4 mps 757 mmHg 96%
    09:00 +20°C° 0.3 mm 4 mps 757 mmHg 95%
    10:00 +20°C° 0.3 mm 4 mps 758 mmHg 95%
    11:00 +20°C° 0.2 mm 4 mps 757 mmHg 92%
    12:00 +21°C° 0.2 mm 4 mps 757 mmHg 90%
    13:00 +21°C° 0.2 mm 4 mps 756 mmHg 88%
    14:00 +21°C° 0.1 mm 4 mps 756 mmHg 88%
    15:00 +21°C° 0.1 mm 4 mps 756 mmHg 88%
    16:00 +21°C° 0.1 mm 4 mps 755 mmHg 88%
    17:00 +21°C° 0.1 mm 4 mps 756 mmHg 89%
    18:00 +20°C° 0.1 mm 4 mps 757 mmHg 89%
    19:00 +20°C° 0.1 mm 4 mps 757 mmHg 90%
    20:00 +20°C° 0.1 mm 4 mps 757 mmHg 91%
    21:00 +20°C° 0.1 mm 5 mps 758 mmHg 93%
    22:00 +20°C° 0.1 mm 5 mps 758 mmHg 94%
    23:00 +20°C° 0.1 mm 5 mps 758 mmHg 95%

    1 July, Saturday

    Time Temperature Precipitation Wind Pressure Humidity
    00:00 +20°C° 0.1 mm 5 mps 757 mmHg 95%
    01:00 +20°C° 0.1 mm 5 mps 757 mmHg 96%
    02:00 +19°C° 0 mm 5 mps 757 mmHg 96%
    03:00 +19°C° 0 mm 5 mps 757 mmHg 96%
    04:00 +19°C° 0 mm 5 mps 757 mmHg 95%
    05:00 +19°C° 0 mm 5 mps 757 mmHg 94%
    06:00 +19°C° 0 mm 5 mps 758 mmHg 94%
    07:00 +17°C° 0 mm 5 mps 758 mmHg 93%
    08:00 +19°C° 0.1 mm 5 mps 758 mmHg 91%
    09:00 +19°C° 0.1 mm 5 mps 758 mmHg 89%
    10:00 +19°C° 0.1 mm 5 mps 759 mmHg 88%
    11:00 +20°C° 0 mm 5 mps 758 mmHg 84%
    12:00 +22°C° 0 mm 5 mps 758 mmHg 80%
    13:00 +23°C° 0 mm 5 mps 757 mmHg 77%
    14:00 +23°C° 0 mm 5 mps 757 mmHg 78%
    15:00 +23°C° 0 mm 5 mps 757 mmHg 80%
    16:00 +22°C° 0 mm 5 mps 757 mmHg 81%
    17:00 +22°C° 0 mm 5 mps 757 mmHg 84%
    18:00 +21°C° 0 mm 5 mps 757 mmHg 87%
    19:00 +20°C° 0 mm 5 mps 758 mmHg 90%
    20:00 +20°C° 0 mm 5 mps 758 mmHg 91%
    21:00 +20°C° 0 mm 5 mps 758 mmHg 92%
    22:00 +19°C° 0 mm 5 mps 758 mmHg 94%
    23:00 +19°C° 0 mm 5 mps 758 mmHg 94%
    Show more